owner,sensor,date,latitude,longitude,air_pressure(mBar),qcFlag 
COMPS,ioos:station:USF.COMPS:ANC:1,2011-04-01T01:00:00Z,28.1930,-82.7890,1006.9,1111122 
COMPS,ioos:station:USF.COMPS:ANC:1,2011-04-01T01:06:00Z,28.1930,-82.7890,1006.84,1111122 
COMPS,ioos:station:USF.COMPS:ANC:1,2011-04-01T01:12:00Z,28.1930,-82.7890,1006.84,1111122 
COMPS,ioos:station:USF.COMPS:ANC:1,2011-04-01T01:18:00Z,28.1930,-82.7890,1006.89,1111122 
COMPS,ioos:station:USF.COMPS:ANC:1,2011-04-01T01:24:00Z,28.1930,-82.7890,1006.93,1111122 
COMPS,ioos:station:USF.COMPS:ANC:1,2011-04-01T01:30:00Z,28.1930,-82.7890,1006.92,1111122 
COMPS,ioos:station:USF.COMPS:ANC:1,2011-04-01T01:36:00Z,28.1930,-82.7890,1006.92,1111122 
COMPS,ioos:station:USF.COMPS:ANC:1,2011-04-01T01:42:00Z,28.1930,-82.7890,1006.98,1111122 
COMPS,ioos:station:USF.COMPS:ANC:1,2011-04-01T01:48:00Z,28.1930,-82.7890,1007.1,1111122 
COMPS,ioos:station:USF.COMPS:ANC:1,2011-04-01T01:54:00Z,28.1930,-82.7890,1007.18,1111122 
COMPS,ioos:station:USF.COMPS:ANC:1,2011-04-01T05:00:00Z,28.1930,-82.7890,1007.72,1111122 
COMPS,ioos:station:USF.COMPS:ANC:1,2011-04-01T05:06:00Z,28.1930,-82.7890,1007.65,1111122 
COMPS,ioos:station:USF.COMPS:ANC:1,2011-04-01T05:12:00Z,28.1930,-82.7890,1007.68,1111122 
COMPS,ioos:station:USF.COMPS:ANC:1,2011-04-01T05:18:00Z,28.1930,-82.7890,1007.58,1111122 
COMPS,ioos:station:USF.COMPS:ANC:1,2011-04-01T05:24:00Z,28.1930,-82.7890,1007.64,1111122 
COMPS,ioos:station:USF.COMPS:ANC:1,2011-04-01T05:30:00Z,28.1930,-82.7890,1007.57,1111122 
COMPS,ioos:station:USF.COMPS:ANC:1,2011-04-01T05:36:00Z,28.1930,-82.7890,1007.41,1111122 
COMPS,ioos:station:USF.COMPS:ANC:1,2011-04-01T05:42:00Z,28.1930,-82.7890,1007.41,1111122 
COMPS,ioos:station:USF.COMPS:ANC:1,2011-04-01T05:48:00Z,28.1930,-82.7890,1007.44,1111122 
COMPS,ioos:station:USF.COMPS:ANC:1,2011-04-01T05:54:00Z,28.1930,-82.7890,1007.46,1111122 
COMPS,ioos:station:USF.COMPS:ANC:1,2011-04-01T06:00:00Z,28.1930,-82.7890,1007.44,1111122 
COMPS,ioos:station:USF.COMPS:ANC:1,2011-04-01T06:06:00Z,28.1930,-82.7890,1007.56,1111122 
COMPS,ioos:station:USF.COMPS:ANC:1,2011-04-01T06:12:00Z,28.1930,-82.7890,1007.65,1111122 
COMPS,ioos:station:USF.COMPS:ANC:1,2011-04-01T06:18:00Z,28.1930,-82.7890,1007.68,1111122 
COMPS,ioos:station:USF.COMPS:ANC:1,2011-04-01T06:24:00Z,28.1930,-82.7890,1007.7,1111122 
COMPS,ioos:station:USF.COMPS:ANC:1,2011-04-01T06:30:00Z,28.1930,-82.7890,1007.66,1111122 
COMPS,ioos:station:USF.COMPS:ANC:1,2011-04-01T06:36:00Z,28.1930,-82.7890,1007.66,1111122 
COMPS,ioos:station:USF.COMPS:ANC:1,2011-04-01T06:42:00Z,28.1930,-82.7890,1007.65,1111122 
COMPS,ioos:station:USF.COMPS:ANC:1,2011-04-01T06:48:00Z,28.1930,-82.7890,1007.7,1111122 
COMPS,ioos:station:USF.COMPS:ANC:1,2011-04-01T06:54:00Z,28.1930,-82.7890,1007.77,1111122 
COMPS,ioos:station:USF.COMPS:ANC:1,2011-04-01T09:00:00Z,28.1930,-82.7890,1008.3,1111122 
COMPS,ioos:station:USF.COMPS:ANC:1,2011-04-01T09:06:00Z,28.1930,-82.7890,1008.36,1111122 
COMPS,ioos:station:USF.COMPS:ANC:1,2011-04-01T09:12:00Z,28.1930,-82.7890,1008.4,1111122 
COMPS,ioos:station:USF.COMPS:ANC:1,2011-04-01T09:18:00Z,28.1930,-82.7890,1008.48,1111122 
COMPS,ioos:station:USF.COMPS:ANC:1,2011-04-01T09:24:00Z,28.1930,-82.7890,1008.21,1111122 
COMPS,ioos:station:USF.COMPS:ANC:1,2011-04-01T09:30:00Z,28.1930,-82.7890,1008.21,1111122 
COMPS,ioos:station:USF.COMPS:ANC:1,2011-04-01T09:36:00Z,28.1930,-82.7890,1008.14,1111122 
COMPS,ioos:station:USF.COMPS:ANC:1,2011-04-01T09:42:00Z,28.1930,-82.7890,1008.22,1111122 
COMPS,ioos:station:USF.COMPS:ANC:1,2011-04-01T09:48:00Z,28.1930,-82.7890,1008.38,1111122 
COMPS,ioos:station:USF.COMPS:ANC:1,2011-04-01T09:54:00Z,28.1930,-82.7890,1008.44,1111122 
COMPS,ioos:station:USF.COMPS:ANC:1,2011-04-01T12:00:00Z,28.1930,-82.7890,1010.54,1111122 
COMPS,ioos:station:USF.COMPS:ANC:1,2011-04-01T12:06:00Z,28.1930,-82.7890,1010.66,1111122 
COMPS,ioos:station:USF.COMPS:ANC:1,2011-04-01T12:12:00Z,28.1930,-82.7890,1010.7,1111122 
COMPS,ioos:station:USF.COMPS:ANC:1,2011-04-01T12:18:00Z,28.1930,-82.7890,1010.84,1111122 
COMPS,ioos:station:USF.COMPS:ANC:1,2011-04-01T12:24:00Z,28.1930,-82.7890,1010.94,1111122 
COMPS,ioos:station:USF.COMPS:ANC:1,2011-04-01T12:30:00Z,28.1930,-82.7890,1011.02,1111122 
COMPS,ioos:station:USF.COMPS:ANC:1,2011-04-01T12:36:00Z,28.1930,-82.7890,1011.16,1111122 
COMPS,ioos:station:USF.COMPS:ANC:1,2011-04-01T12:42:00Z,28.1930,-82.7890,1011.29,1111122 
COMPS,ioos:station:USF.COMPS:ANC:1,2011-04-01T12:48:00Z,28.1930,-82.7890,1011.32,1111122 
COMPS,ioos:station:USF.COMPS:ANC:1,2011-04-01T12:54:00Z,28.1930,-82.7890,1011.44,1111122 
COMPS,ioos:station:USF.COMPS:ANC:1,2011-04-01T16:00:00Z,28.1930,-82.7890,1012.77,1111122 
COMPS,ioos:station:USF.COMPS:ANC:1,2011-04-01T16:06:00Z,28.1930,-82.7890,1012.84,1111122 
COMPS,ioos:station:USF.COMPS:ANC:1,2011-04-01T16:12:00Z,28.1930,-82.7890,1012.84,1111122 
COMPS,ioos:station:USF.COMPS:ANC:1,2011-04-01T16:18:00Z,28.1930,-82.7890,1012.86,1111122 
COMPS,ioos:station:USF.COMPS:ANC:1,2011-04-01T16:24:00Z,28.1930,-82.7890,1012.85,1111122 
COMPS,ioos:station:USF.COMPS:ANC:1,2011-04-01T16:30:00Z,28.1930,-82.7890,1012.84,1111122 
COMPS,ioos:station:USF.COMPS:ANC:1,2011-04-01T16:36:00Z,28.1930,-82.7890,1012.89,1111122 
COMPS,ioos:station:USF.COMPS:ANC:1,2011-04-01T16:42:00Z,28.1930,-82.7890,1012.85,1111122 
COMPS,ioos:station:USF.COMPS:ANC:1,2011-04-01T16:48:00Z,28.1930,-82.7890,1012.8,1111122 
COMPS,ioos:station:USF.COMPS:ANC:1,2011-04-01T16:54:00Z,28.1930,-82.7890,1012.68,1111122 
COMPS,ioos:station:USF.COMPS:ANC:1,2011-04-01T18:00:00Z,28.1930,-82.7890,1012.45,1111122 
COMPS,ioos:station:USF.COMPS:ANC:1,2011-04-01T18:06:00Z,28.1930,-82.7890,1012.44,1111122 
COMPS,ioos:station:USF.COMPS:ANC:1,2011-04-01T18:12:00Z,28.1930,-82.7890,1012.41,1111122 
COMPS,ioos:station:USF.COMPS:ANC:1,2011-04-01T18:18:00Z,28.1930,-82.7890,1012.42,1111122 
COMPS,ioos:station:USF.COMPS:ANC:1,2011-04-01T18:24:00Z,28.1930,-82.7890,1012.42,1111122 
COMPS,ioos:station:USF.COMPS:ANC:1,2011-04-01T18:30:00Z,28.1930,-82.7890,1012.4,1111122 
COMPS,ioos:station:USF.COMPS:ANC:1,2011-04-01T18:36:00Z,28.1930,-82.7890,1012.38,1111122 
COMPS,ioos:station:USF.COMPS:ANC:1,2011-04-01T18:42:00Z,28.1930,-82.7890,1012.38,1111122 
COMPS,ioos:station:USF.COMPS:ANC:1,2011-04-01T18:48:00Z,28.1930,-82.7890,1012.32,1111122 
COMPS,ioos:station:USF.COMPS:ANC:1,2011-04-01T18:54:00Z,28.1930,-82.7890,1012.28,1111122 
COMPS,ioos:station:USF.COMPS:ANC:1,2011-04-01T21:00:00Z,28.1930,-82.7890,1011.8,1111122 
COMPS,ioos:station:USF.COMPS:ANC:1,2011-04-01T21:06:00Z,28.1930,-82.7890,1011.78,1111122 
COMPS,ioos:station:USF.COMPS:ANC:1,2011-04-01T21:12:00Z,28.1930,-82.7890,1011.88,1111122 
COMPS,ioos:station:USF.COMPS:ANC:1,2011-04-01T21:18:00Z,28.1930,-82.7890,1011.89,1111122 
COMPS,ioos:station:USF.COMPS:ANC:1,2011-04-01T21:24:00Z,28.1930,-82.7890,1011.84,1111122 
COMPS,ioos:station:USF.COMPS:ANC:1,2011-04-01T21:30:00Z,28.1930,-82.7890,1011.81,1111122 
COMPS,ioos:station:USF.COMPS:ANC:1,2011-04-01T21:36:00Z,28.1930,-82.7890,1011.86,1111122 
COMPS,ioos:station:USF.COMPS:ANC:1,2011-04-01T21:42:00Z,28.1930,-82.7890,1012.01,1111122 
COMPS,ioos:station:USF.COMPS:ANC:1,2011-04-01T21:48:00Z,28.1930,-82.7890,1012.01,1111122 
COMPS,ioos:station:USF.COMPS:ANC:1,2011-04-01T21:54:00Z,28.1930,-82.7890,1011.98,1111122 
COMPS,ioos:station:USF.COMPS:ANC:1,2011-04-02T00:00:00Z,28.1930,-82.7890,1013.13,1111122 
COMPS,ioos:station:USF.COMPS:ANC:1,2011-04-02T00:06:00Z,28.1930,-82.7890,1013.09,1111122 
COMPS,ioos:station:USF.COMPS:ANC:1,2011-04-02T00:12:00Z,28.1930,-82.7890,1013.12,1111122 
COMPS,ioos:station:USF.COMPS:ANC:1,2011-04-02T00:18:00Z,28.1930,-82.7890,1013.21,1111122 
COMPS,ioos:station:USF.COMPS:ANC:1,2011-04-02T00:24:00Z,28.1930,-82.7890,1013.32,1111122 
COMPS,ioos:station:USF.COMPS:ANC:1,2011-04-02T00:30:00Z,28.1930,-82.7890,1013.45,1111122 
COMPS,ioos:station:USF.COMPS:ANC:1,2011-04-02T00:36:00Z,28.1930,-82.7890,1013.41,1111122 
COMPS,ioos:station:USF.COMPS:ANC:1,2011-04-02T00:42:00Z,28.1930,-82.7890,1013.45,1111122 
COMPS,ioos:station:USF.COMPS:ANC:1,2011-04-02T00:48:00Z,28.1930,-82.7890,1013.5,1111122 
COMPS,ioos:station:USF.COMPS:ANC:1,2011-04-02T00:54:00Z,28.1930,-82.7890,1013.52,1111122 
COMPS,ioos:station:USF.COMPS:ANC:1,2011-04-02T03:00:00Z,28.1930,-82.7890,1014.49,1111122 
COMPS,ioos:station:USF.COMPS:ANC:1,2011-04-02T03:06:00Z,28.1930,-82.7890,1014.53,1111122 
COMPS,ioos:station:USF.COMPS:ANC:1,2011-04-02T03:12:00Z,28.1930,-82.7890,1014.61,1111122 
COMPS,ioos:station:USF.COMPS:ANC:1,2011-04-02T03:18:00Z,28.1930,-82.7890,1014.62,1111122 
COMPS,ioos:station:USF.COMPS:ANC:1,2011-04-02T03:24:00Z,28.1930,-82.7890,1014.62,1111122 
COMPS,ioos:station:USF.COMPS:ANC:1,2011-04-02T03:30:00Z,28.1930,-82.7890,1014.62,1111122 
COMPS,ioos:station:USF.COMPS:ANC:1,2011-04-02T03:36:00Z,28.1930,-82.7890,1014.61,1111122 
COMPS,ioos:station:USF.COMPS:ANC:1,2011-04-02T03:42:00Z,28.1930,-82.7890,1014.52,1111122 
COMPS,ioos:station:USF.COMPS:ANC:1,2011-04-02T03:48:00Z,28.1930,-82.7890,1014.5,1111122 
COMPS,ioos:station:USF.COMPS:ANC:1,2011-04-02T03:54:00Z,28.1930,-82.7890,1014.49,1111122 
COMPS,ioos:station:USF.COMPS:ANC:1,2011-04-02T06:00:00Z,28.1930,-82.7890,1014.56,1111122 
COMPS,ioos:station:USF.COMPS:ANC:1,2011-04-02T06:06:00Z,28.1930,-82.7890,1014.66,1111122 
COMPS,ioos:station:USF.COMPS:ANC:1,2011-04-02T06:12:00Z,28.1930,-82.7890,1014.7,1111122 
COMPS,ioos:station:USF.COMPS:ANC:1,2011-04-02T06:18:00Z,28.1930,-82.7890,1014.66,1111122 
COMPS,ioos:station:USF.COMPS:ANC:1,2011-04-02T06:24:00Z,28.1930,-82.7890,1014.66,1111122 
COMPS,ioos:station:USF.COMPS:ANC:1,2011-04-02T06:30:00Z,28.1930,-82.7890,1014.69,1111122 
COMPS,ioos:station:USF.COMPS:ANC:1,2011-04-02T06:36:00Z,28.1930,-82.7890,1014.7,1111122 
COMPS,ioos:station:USF.COMPS:ANC:1,2011-04-02T06:42:00Z,28.1930,-82.7890,1014.68,1111122 
COMPS,ioos:station:USF.COMPS:ANC:1,2011-04-02T06:48:00Z,28.1930,-82.7890,1014.64,1111122 
COMPS,ioos:station:USF.COMPS:ANC:1,2011-04-02T06:54:00Z,28.1930,-82.7890,1014.65,1111122 
COMPS,ioos:station:USF.COMPS:ANC:1,2011-04-02T09:00:00Z,28.1930,-82.7890,1013.82,1111122 
COMPS,ioos:station:USF.COMPS:ANC:1,2011-04-02T09:06:00Z,28.1930,-82.7890,1014.1,1111122 
COMPS,ioos:station:USF.COMPS:ANC:1,2011-04-02T09:12:00Z,28.1930,-82.7890,1014.18,1111122 
COMPS,ioos:station:USF.COMPS:ANC:1,2011-04-02T09:18:00Z,28.1930,-82.7890,1014.24,1111122 
COMPS,ioos:station:USF.COMPS:ANC:1,2011-04-02T09:24:00Z,28.1930,-82.7890,1014.24,1111122 
COMPS,ioos:station:USF.COMPS:ANC:1,2011-04-02T09:30:00Z,28.1930,-82.7890,1014.28,1111122 
COMPS,ioos:station:USF.COMPS:ANC:1,2011-04-02T09:36:00Z,28.1930,-82.7890,1014.46,1111122 
COMPS,ioos:station:USF.COMPS:ANC:1,2011-04-02T09:42:00Z,28.1930,-82.7890,1014.61,1111122 
COMPS,ioos:station:USF.COMPS:ANC:1,2011-04-02T09:48:00Z,28.1930,-82.7890,1014.8,1111122 
COMPS,ioos:station:USF.COMPS:ANC:1,2011-04-02T09:54:00Z,28.1930,-82.7890,1014.82,1111122 
COMPS,ioos:station:USF.COMPS:ANC:1,2011-04-02T12:00:00Z,28.1930,-82.7890,1016.17,1111122 
COMPS,ioos:station:USF.COMPS:ANC:1,2011-04-02T12:06:00Z,28.1930,-82.7890,1016.2,1111122 
COMPS,ioos:station:USF.COMPS:ANC:1,2011-04-02T12:12:00Z,28.1930,-82.7890,1016.21,1111122 
COMPS,ioos:station:USF.COMPS:ANC:1,2011-04-02T12:18:00Z,28.1930,-82.7890,1016.25,1111122 
COMPS,ioos:station:USF.COMPS:ANC:1,2011-04-02T12:24:00Z,28.1930,-82.7890,1016.26,1111122 
COMPS,ioos:station:USF.COMPS:ANC:1,2011-04-02T12:30:00Z,28.1930,-82.7890,1016.36,1111122 
COMPS,ioos:station:USF.COMPS:ANC:1,2011-04-02T12:36:00Z,28.1930,-82.7890,1016.44,1111122 
COMPS,ioos:station:USF.COMPS:ANC:1,2011-04-02T12:42:00Z,28.1930,-82.7890,1016.45,1111122 
COMPS,ioos:station:USF.COMPS:ANC:1,2011-04-02T12:48:00Z,28.1930,-82.7890,1016.5,1111122 
COMPS,ioos:station:USF.COMPS:ANC:1,2011-04-02T12:54:00Z,28.1930,-82.7890,1016.53,1111122 
COMPS,ioos:station:USF.COMPS:ANC:1,2011-04-02T15:00:00Z,28.1930,-82.7890,1017.58,1111122 
COMPS,ioos:station:USF.COMPS:ANC:1,2011-04-02T15:06:00Z,28.1930,-82.7890,1017.6,1111122 
COMPS,ioos:station:USF.COMPS:ANC:1,2011-04-02T15:12:00Z,28.1930,-82.7890,1017.6,1111122 
COMPS,ioos:station:USF.COMPS:ANC:1,2011-04-02T15:18:00Z,28.1930,-82.7890,1017.64,1111122 
COMPS,ioos:station:USF.COMPS:ANC:1,2011-04-02T15:24:00Z,28.1930,-82.7890,1017.58,1111122 
COMPS,ioos:station:USF.COMPS:ANC:1,2011-04-02T15:30:00Z,28.1930,-82.7890,1017.6,1111122 
COMPS,ioos:station:USF.COMPS:ANC:1,2011-04-02T15:36:00Z,28.1930,-82.7890,1017.6,1111122 
COMPS,ioos:station:USF.COMPS:ANC:1,2011-04-02T15:42:00Z,28.1930,-82.7890,1017.62,1111122 
COMPS,ioos:station:USF.COMPS:ANC:1,2011-04-02T15:48:00Z,28.1930,-82.7890,1017.64,1111122 
COMPS,ioos:station:USF.COMPS:ANC:1,2011-04-02T15:54:00Z,28.1930,-82.7890,1017.6,1111122 
COMPS,ioos:station:USF.COMPS:ANC:1,2011-04-02T17:00:00Z,28.1930,-82.7890,1017.73,1111122 
COMPS,ioos:station:USF.COMPS:ANC:1,2011-04-02T17:06:00Z,28.1930,-82.7890,1017.66,1111122 
COMPS,ioos:station:USF.COMPS:ANC:1,2011-04-02T17:12:00Z,28.1930,-82.7890,1017.61,1111122 
COMPS,ioos:station:USF.COMPS:ANC:1,2011-04-02T17:18:00Z,28.1930,-82.7890,1017.61,1111122 
COMPS,ioos:station:USF.COMPS:ANC:1,2011-04-02T17:24:00Z,28.1930,-82.7890,1017.54,1111122 
COMPS,ioos:station:USF.COMPS:ANC:1,2011-04-02T17:30:00Z,28.1930,-82.7890,1017.54,1111122 
COMPS,ioos:station:USF.COMPS:ANC:1,2011-04-02T17:36:00Z,28.1930,-82.7890,1017.5,1111122 
COMPS,ioos:station:USF.COMPS:ANC:1,2011-04-02T17:42:00Z,28.1930,-82.7890,1017.5,1111122 
COMPS,ioos:station:USF.COMPS:ANC:1,2011-04-02T17:48:00Z,28.1930,-82.7890,1017.5,1111122 
COMPS,ioos:station:USF.COMPS:ANC:1,2011-04-02T17:54:00Z,28.1930,-82.7890,1017.44,1111122 
COMPS,ioos:station:USF.COMPS:ANC:1,2011-04-02T20:00:00Z,28.1930,-82.7890,1016.09,1111122 
COMPS,ioos:station:USF.COMPS:ANC:1,2011-04-02T20:06:00Z,28.1930,-82.7890,1016.06,1111122 
COMPS,ioos:station:USF.COMPS:ANC:1,2011-04-02T20:12:00Z,28.1930,-82.7890,1016.09,1111122 
COMPS,ioos:station:USF.COMPS:ANC:1,2011-04-02T20:18:00Z,28.1930,-82.7890,1016.06,1111122 
COMPS,ioos:station:USF.COMPS:ANC:1,2011-04-02T20:24:00Z,28.1930,-82.7890,1016.06,1111122 
COMPS,ioos:station:USF.COMPS:ANC:1,2011-04-02T20:30:00Z,28.1930,-82.7890,1016.0,1111122 
COMPS,ioos:station:USF.COMPS:ANC:1,2011-04-02T20:36:00Z,28.1930,-82.7890,1015.9,1111122 
COMPS,ioos:station:USF.COMPS:ANC:1,2011-04-02T20:42:00Z,28.1930,-82.7890,1015.8,1111122 
COMPS,ioos:station:USF.COMPS:ANC:1,2011-04-02T20:48:00Z,28.1930,-82.7890,1015.92,1111122 
COMPS,ioos:station:USF.COMPS:ANC:1,2011-04-02T20:54:00Z,28.1930,-82.7890,1015.98,1111122 
COMPS,ioos:station:USF.COMPS:ANC:1,2011-04-02T23:00:00Z,28.1930,-82.7890,1016.26,1111122 
COMPS,ioos:station:USF.COMPS:ANC:1,2011-04-02T23:06:00Z,28.1930,-82.7890,1016.3,1111122 
COMPS,ioos:station:USF.COMPS:ANC:1,2011-04-02T23:12:00Z,28.1930,-82.7890,1016.36,1111122 
COMPS,ioos:station:USF.COMPS:ANC:1,2011-04-02T23:18:00Z,28.1930,-82.7890,1016.44,1111122 
COMPS,ioos:station:USF.COMPS:ANC:1,2011-04-02T23:24:00Z,28.1930,-82.7890,1016.48,1111122 
COMPS,ioos:station:USF.COMPS:ANC:1,2011-04-02T23:30:00Z,28.1930,-82.7890,1016.56,1111122 
COMPS,ioos:station:USF.COMPS:ANC:1,2011-04-02T23:36:00Z,28.1930,-82.7890,1016.56,1111122 
COMPS,ioos:station:USF.COMPS:ANC:1,2011-04-02T23:42:00Z,28.1930,-82.7890,1016.72,1111122 
COMPS,ioos:station:USF.COMPS:ANC:1,2011-04-02T23:48:00Z,28.1930,-82.7890,1016.7,1111122 
COMPS,ioos:station:USF.COMPS:ANC:1,2011-04-02T23:54:00Z,28.1930,-82.7890,1016.72,1111122 
COMPS,ioos:station:USF.COMPS:ANC:1,2011-04-03T02:00:00Z,28.1930,-82.7890,1017.93,1111122 
COMPS,ioos:station:USF.COMPS:ANC:1,2011-04-03T02:06:00Z,28.1930,-82.7890,1018.06,1111122 
COMPS,ioos:station:USF.COMPS:ANC:1,2011-04-03T02:12:00Z,28.1930,-82.7890,1018.09,1111122 
COMPS,ioos:station:USF.COMPS:ANC:1,2011-04-03T02:18:00Z,28.1930,-82.7890,1018.06,1111122 
COMPS,ioos:station:USF.COMPS:ANC:1,2011-04-03T02:24:00Z,28.1930,-82.7890,1018.06,1111122 
COMPS,ioos:station:USF.COMPS:ANC:1,2011-04-03T02:30:00Z,28.1930,-82.7890,1018.06,1111122 
COMPS,ioos:station:USF.COMPS:ANC:1,2011-04-03T02:36:00Z,28.1930,-82.7890,1018.06,1111122 
COMPS,ioos:station:USF.COMPS:ANC:1,2011-04-03T02:42:00Z,28.1930,-82.7890,1018.08,1111122 
COMPS,ioos:station:USF.COMPS:ANC:1,2011-04-03T02:48:00Z,28.1930,-82.7890,1018.1,1111122 
COMPS,ioos:station:USF.COMPS:ANC:1,2011-04-03T02:54:00Z,28.1930,-82.7890,1018.1,1111122 
COMPS,ioos:station:USF.COMPS:ANC:1,2011-04-03T05:00:00Z,28.1930,-82.7890,1018.08,1111122 
COMPS,ioos:station:USF.COMPS:ANC:1,2011-04-03T05:06:00Z,28.1930,-82.7890,1018.08,1111122 
COMPS,ioos:station:USF.COMPS:ANC:1,2011-04-03T05:12:00Z,28.1930,-82.7890,1018.08,1111122 
COMPS,ioos:station:USF.COMPS:ANC:1,2011-04-03T05:18:00Z,28.1930,-82.7890,1018.06,1111122 
COMPS,ioos:station:USF.COMPS:ANC:1,2011-04-03T05:24:00Z,28.1930,-82.7890,1018.06,1111122 
COMPS,ioos:station:USF.COMPS:ANC:1,2011-04-03T05:30:00Z,28.1930,-82.7890,1018.06,1111122 
COMPS,ioos:station:USF.COMPS:ANC:1,2011-04-03T05:36:00Z,28.1930,-82.7890,1018.12,1111122 
COMPS,ioos:station:USF.COMPS:ANC:1,2011-04-03T05:42:00Z,28.1930,-82.7890,1018.08,1111122 
COMPS,ioos:station:USF.COMPS:ANC:1,2011-04-03T05:48:00Z,28.1930,-82.7890,1018.1,1111122 
COMPS,ioos:station:USF.COMPS:ANC:1,2011-04-03T05:54:00Z,28.1930,-82.7890,1018.08,1111122 
COMPS,ioos:station:USF.COMPS:ANC:1,2011-04-03T08:00:00Z,28.1930,-82.7890,1017.58,1111122 
COMPS,ioos:station:USF.COMPS:ANC:1,2011-04-03T08:06:00Z,28.1930,-82.7890,1017.58,1111122 
COMPS,ioos:station:USF.COMPS:ANC:1,2011-04-03T08:12:00Z,28.1930,-82.7890,1017.65,1111122 
COMPS,ioos:station:USF.COMPS:ANC:1,2011-04-03T08:18:00Z,28.1930,-82.7890,1017.64,1111122 
COMPS,ioos:station:USF.COMPS:ANC:1,2011-04-03T08:24:00Z,28.1930,-82.7890,1017.66,1111122 
COMPS,ioos:station:USF.COMPS:ANC:1,2011-04-03T08:30:00Z,28.1930,-82.7890,1017.66,1111122 
COMPS,ioos:station:USF.COMPS:ANC:1,2011-04-03T08:36:00Z,28.1930,-82.7890,1017.66,1111122 
COMPS,ioos:station:USF.COMPS:ANC:1,2011-04-03T08:42:00Z,28.1930,-82.7890,1017.65,1111122 
COMPS,ioos:station:USF.COMPS:ANC:1,2011-04-03T08:48:00Z,28.1930,-82.7890,1017.66,1111122 
COMPS,ioos:station:USF.COMPS:ANC:1,2011-04-03T08:54:00Z,28.1930,-82.7890,1017.68,1111122 
COMPS,ioos:station:USF.COMPS:ANC:1,2011-04-03T11:00:00Z,28.1930,-82.7890,1019.05,1111122 
COMPS,ioos:station:USF.COMPS:ANC:1,2011-04-03T11:06:00Z,28.1930,-82.7890,1019.14,1111122 
COMPS,ioos:station:USF.COMPS:ANC:1,2011-04-03T11:12:00Z,28.1930,-82.7890,1019.2,1111122 
COMPS,ioos:station:USF.COMPS:ANC:1,2011-04-03T11:18:00Z,28.1930,-82.7890,1019.26,1111122 
COMPS,ioos:station:USF.COMPS:ANC:1,2011-04-03T11:24:00Z,28.1930,-82.7890,1019.34,1111122 
COMPS,ioos:station:USF.COMPS:ANC:1,2011-04-03T11:30:00Z,28.1930,-82.7890,1019.44,1111122 
COMPS,ioos:station:USF.COMPS:ANC:1,2011-04-03T11:36:00Z,28.1930,-82.7890,1019.49,1111122 
COMPS,ioos:station:USF.COMPS:ANC:1,2011-04-03T11:42:00Z,28.1930,-82.7890,1019.49,1111122 
COMPS,ioos:station:USF.COMPS:ANC:1,2011-04-03T11:48:00Z,28.1930,-82.7890,1019.61,1111122 
COMPS,ioos:station:USF.COMPS:ANC:1,2011-04-03T11:54:00Z,28.1930,-82.7890,1019.74,1111122 
COMPS,ioos:station:USF.COMPS:ANC:1,2011-04-03T14:00:00Z,28.1930,-82.7890,1020.84,1111122 
COMPS,ioos:station:USF.COMPS:ANC:1,2011-04-03T14:06:00Z,28.1930,-82.7890,1020.9,1111122 
COMPS,ioos:station:USF.COMPS:ANC:1,2011-04-03T14:12:00Z,28.1930,-82.7890,1020.92,1111122 
COMPS,ioos:station:USF.COMPS:ANC:1,2011-04-03T14:18:00Z,28.1930,-82.7890,1020.92,1111122 
COMPS,ioos:station:USF.COMPS:ANC:1,2011-04-03T14:24:00Z,28.1930,-82.7890,1020.84,1111122 
COMPS,ioos:station:USF.COMPS:ANC:1,2011-04-03T14:30:00Z,28.1930,-82.7890,1020.8,1111122 
COMPS,ioos:station:USF.COMPS:ANC:1,2011-04-03T14:36:00Z,28.1930,-82.7890,1020.86,1111122 
COMPS,ioos:station:USF.COMPS:ANC:1,2011-04-03T14:42:00Z,28.1930,-82.7890,1020.82,1111122 
COMPS,ioos:station:USF.COMPS:ANC:1,2011-04-03T14:48:00Z,28.1930,-82.7890,1020.85,1111122 
COMPS,ioos:station:USF.COMPS:ANC:1,2011-04-03T14:54:00Z,28.1930,-82.7890,1020.9,1111122 
COMPS,ioos:station:USF.COMPS:ANC:1,2011-04-03T17:00:00Z,28.1930,-82.7890,1020.14,1111122 
COMPS,ioos:station:USF.COMPS:ANC:1,2011-04-03T17:06:00Z,28.1930,-82.7890,1020.06,1111122 
COMPS,ioos:station:USF.COMPS:ANC:1,2011-04-03T17:12:00Z,28.1930,-82.7890,1020.0,1111122 
COMPS,ioos:station:USF.COMPS:ANC:1,2011-04-03T17:18:00Z,28.1930,-82.7890,1019.89,1111122 
COMPS,ioos:station:USF.COMPS:ANC:1,2011-04-03T17:24:00Z,28.1930,-82.7890,1019.84,1111122 
COMPS,ioos:station:USF.COMPS:ANC:1,2011-04-03T17:30:00Z,28.1930,-82.7890,1019.73,1111122 
COMPS,ioos:station:USF.COMPS:ANC:1,2011-04-03T17:36:00Z,28.1930,-82.7890,1019.6,1111122 
COMPS,ioos:station:USF.COMPS:ANC:1,2011-04-03T17:42:00Z,28.1930,-82.7890,1019.53,1111122 
COMPS,ioos:station:USF.COMPS:ANC:1,2011-04-03T17:48:00Z,28.1930,-82.7890,1019.41,1111122 
COMPS,ioos:station:USF.COMPS:ANC:1,2011-04-03T17:54:00Z,28.1930,-82.7890,1019.4,1111122 
COMPS,ioos:station:USF.COMPS:ANC:1,2011-04-03T20:00:00Z,28.1930,-82.7890,1017.6,1111122 
COMPS,ioos:station:USF.COMPS:ANC:1,2011-04-03T20:06:00Z,28.1930,-82.7890,1017.57,1111122 
COMPS,ioos:station:USF.COMPS:ANC:1,2011-04-03T20:12:00Z,28.1930,-82.7890,1017.52,1111122 
COMPS,ioos:station:USF.COMPS:ANC:1,2011-04-03T20:18:00Z,28.1930,-82.7890,1017.48,1111122 
COMPS,ioos:station:USF.COMPS:ANC:1,2011-04-03T20:24:00Z,28.1930,-82.7890,1017.36,1111122 
COMPS,ioos:station:USF.COMPS:ANC:1,2011-04-03T20:30:00Z,28.1930,-82.7890,1017.33,1111122 
COMPS,ioos:station:USF.COMPS:ANC:1,2011-04-03T20:36:00Z,28.1930,-82.7890,1017.28,1111122 
COMPS,ioos:station:USF.COMPS:ANC:1,2011-04-03T20:42:00Z,28.1930,-82.7890,1017.2,1111122 
COMPS,ioos:station:USF.COMPS:ANC:1,2011-04-03T20:48:00Z,28.1930,-82.7890,1017.18,1111122 
COMPS,ioos:station:USF.COMPS:ANC:1,2011-04-03T20:54:00Z,28.1930,-82.7890,1017.2,1111122 
COMPS,ioos:station:USF.COMPS:ANC:1,2011-04-03T23:00:00Z,28.1930,-82.7890,1017.2,1111122 
COMPS,ioos:station:USF.COMPS:ANC:1,2011-04-03T23:06:00Z,28.1930,-82.7890,1017.18,1111122 
COMPS,ioos:station:USF.COMPS:ANC:1,2011-04-03T23:12:00Z,28.1930,-82.7890,1017.2,1111122 
COMPS,ioos:station:USF.COMPS:ANC:1,2011-04-03T23:18:00Z,28.1930,-82.7890,1017.22,1111122 
COMPS,ioos:station:USF.COMPS:ANC:1,2011-04-03T23:24:00Z,28.1930,-82.7890,1017.3,1111122 
COMPS,ioos:station:USF.COMPS:ANC:1,2011-04-03T23:30:00Z,28.1930,-82.7890,1017.32,1111122 
COMPS,ioos:station:USF.COMPS:ANC:1,2011-04-03T23:36:00Z,28.1930,-82.7890,1017.36,1111122 
COMPS,ioos:station:USF.COMPS:ANC:1,2011-04-03T23:42:00Z,28.1930,-82.7890,1017.4,1111122 
COMPS,ioos:station:USF.COMPS:ANC:1,2011-04-03T23:48:00Z,28.1930,-82.7890,1017.38,1111122 
COMPS,ioos:station:USF.COMPS:ANC:1,2011-04-03T23:54:00Z,28.1930,-82.7890,1017.4,1111122 
COMPS,ioos:station:USF.COMPS:ANC:1,2011-04-04T02:00:00Z,28.1930,-82.7890,1018.28,1111122 
COMPS,ioos:station:USF.COMPS:ANC:1,2011-04-04T02:06:00Z,28.1930,-82.7890,1018.4,1111122 
COMPS,ioos:station:USF.COMPS:ANC:1,2011-04-04T02:12:00Z,28.1930,-82.7890,1018.41,1111122 
COMPS,ioos:station:USF.COMPS:ANC:1,2011-04-04T02:18:00Z,28.1930,-82.7890,1018.42,1111122 
COMPS,ioos:station:USF.COMPS:ANC:1,2011-04-04T02:24:00Z,28.1930,-82.7890,1018.48,1111122 
COMPS,ioos:station:USF.COMPS:ANC:1,2011-04-04T02:30:00Z,28.1930,-82.7890,1018.49,1111122 
COMPS,ioos:station:USF.COMPS:ANC:1,2011-04-04T02:36:00Z,28.1930,-82.7890,1018.49,1111122 
COMPS,ioos:station:USF.COMPS:ANC:1,2011-04-04T02:42:00Z,28.1930,-82.7890,1018.49,1111122 
COMPS,ioos:station:USF.COMPS:ANC:1,2011-04-04T02:48:00Z,28.1930,-82.7890,1018.52,1111122 
COMPS,ioos:station:USF.COMPS:ANC:1,2011-04-04T02:54:00Z,28.1930,-82.7890,1018.52,1111122 
COMPS,ioos:station:USF.COMPS:ANC:1,2011-04-04T05:00:00Z,28.1930,-82.7890,1018.16,1111122 
COMPS,ioos:station:USF.COMPS:ANC:1,2011-04-04T05:06:00Z,28.1930,-82.7890,1018.14,1111122 
COMPS,ioos:station:USF.COMPS:ANC:1,2011-04-04T05:12:00Z,28.1930,-82.7890,1018.13,1111122 
COMPS,ioos:station:USF.COMPS:ANC:1,2011-04-04T05:18:00Z,28.1930,-82.7890,1018.1,1111122 
COMPS,ioos:station:USF.COMPS:ANC:1,2011-04-04T05:24:00Z,28.1930,-82.7890,1018.05,1111122 
COMPS,ioos:station:USF.COMPS:ANC:1,2011-04-04T05:30:00Z,28.1930,-82.7890,1018.01,1111122 